Location: Banff
(51.1667°N, 115.5667°W)
Time: 15:51:14
(UTC+00:00)

Altair - Pass Details

Date: 04 December 2020
Orbit: 1501 x 1682 km, 47.2° (Epoch: 15 January)

Event Time Altitude Azimuth Distance (km) Brightness Sun altitude
Rises 00:24:21 0° 172° (S) 4,774 10.3 -7.2°
Reaches altitude 10° 00:30:11 10° 145° (SE) 3,750 9.4 -8.0°
Maximum altitude 00:33:22 12° 125° (SE) 3,562 9.1 -8.5°
Drops below altitude 10° 00:36:31 10° 104° (ESE) 3,711 9.1 -8.9°
Enters shadow 00:38:55 - 91° (E) 4,033 9.1 -9.3°
